Weather History for Port Angeles, WA

Change the Weather History Date:

Sunday, July 7, 2013

  Actual Average Record
Temperature  
Mean Temperature 62 °F -  
Max Temperature 70 °F 66 °F 82 °F (1996)
Min Temperature 53 °F 49 °F 43 °F (1971)
Degree Days  
Heating Degree Days 4    
Growing Degree Days 12 (Base 50)    
Moisture  
Dew Point 53 °F    
Average Humidity 84    
Maximum Humidity 100    
Minimum Humidity 59    
Precipitation  
Precipitation 0.00 in - - ()
Sea Level Pressure  
Sea Level Pressure 29.93 in    
Wind  
Wind Speed 7 mph (NW)    
Max Wind Speed 13 mph    
Max Gust Speed -    
Visibility 8 miles    
Events      
Averages and records for this station are not official NWS values.
T = Trace of Precipitation, MM = Missing Value Source: NWS Daily Summary

Daily Weather History Graph

Daily Weather History Graph

Search for Another Location

Airport:

Trip Planner

Search our weather history database for the weather conditions in past years. The results will help you decide how hot, cold, wet, or windy it might be!

Date:

Astronomy

Jul. 07, 2013 Rise Set
Actual Time 5:22 AM PDT 9:14 PM PDT
Civil Twilight 4:42 AM PDT 9:55 PM PDT
Nautical Twilight 3:46 AM PDT 10:50 PM PDT
Astronomical Twilight 2:20 AM PDT 12:15 AM PDT
Moon 5:09 AM PDT (7/7) 8:35 PM PDT (7/7)
Length of Visible Light 17h 13m
Length of Day
15h 52m
Waning Crescent, 0% of the Moon is Illuminated
Jul 7
Waning Crescent
Jul 8
New
Jul 15
First Quarter
Jul 22
Full
Jul 29
Last Quarter

Hourly Weather History & Observations

Time (PDT) Temp. Dew Point Humidity Pressure Visibility Wind Dir Wind Speed Gust Speed Precip Events Conditions
12:53 AM 55.9 °F 52.0 °F 87% 29.90 in 10.0 mi NW 6.9 mph - N/A   Clear
1:53 AM 55.0 °F 52.0 °F 89% 29.90 in 10.0 mi NW 12.7 mph - N/A   Clear
2:53 AM 54.0 °F 52.0 °F 93% 29.91 in 10.0 mi NW 9.2 mph - N/A   Clear
3:26 AM 54.0 °F 52.0 °F 93% 29.91 in 8.0 mi WNW 9.2 mph - N/A   Scattered Clouds
3:40 AM 54.0 °F 52.0 °F 93% 29.91 in 7.0 mi WNW 4.6 mph - N/A   Mostly Cloudy
3:53 AM 54.0 °F 52.0 °F 93% 29.92 in 7.0 mi West 5.8 mph - N/A   Overcast
4:53 AM 53.1 °F 52.0 °F 96% 29.92 in 5.0 mi West 5.8 mph - N/A   Overcast
5:36 AM 53.1 °F 52.0 °F 96% 29.93 in 2.5 mi West 6.9 mph - N/A   Overcast
5:53 AM 53.1 °F 52.0 °F 96% 29.94 in 2.0 mi West 4.6 mph - N/A   Overcast
6:01 AM 54.0 °F 53.1 °F 97% 29.93 in 1.8 mi West 4.6 mph - N/A   Overcast
6:51 AM 53.6 °F 53.6 °F 100% 29.94 in 3.0 mi West 3.5 mph - N/A   Overcast
6:52 AM 54.0 °F 53.1 °F 97% 29.94 in 3.0 mi West 4.6 mph - N/A   Overcast
7:53 AM 55.0 °F 53.1 °F 93% 29.95 in 8.0 mi WNW 3.5 mph - N/A   Overcast
8:04 AM 55.9 °F 54.0 °F 93% 29.95 in 8.0 mi West 3.5 mph - N/A   Overcast
8:53 AM 57.9 °F 53.1 °F 84% 29.96 in 10.0 mi NNW 4.6 mph - N/A   Mostly Cloudy
9:04 AM 59.0 °F 53.1 °F 81% 29.95 in 10.0 mi Calm Calm - N/A   Partly Cloudy
9:53 AM 60.1 °F 54.0 °F 80% 29.96 in 10.0 mi North 4.6 mph - N/A   Clear
10:53 AM 62.1 °F 54.0 °F 75% 29.96 in 10.0 mi North 4.6 mph - N/A   Clear
11:53 AM 63.0 °F 54.0 °F 72% 29.96 in 10.0 mi North 4.6 mph - N/A   Clear
12:53 PM 64.9 °F 54.0 °F 68% 29.95 in 10.0 mi North 5.8 mph - N/A   Clear
1:53 PM 64.9 °F 54.0 °F 68% 29.94 in 10.0 mi North 6.9 mph - N/A   Clear
2:53 PM 66.9 °F 55.0 °F 66% 29.94 in 10.0 mi Variable 5.8 mph - N/A   Clear
3:53 PM 70.0 °F 55.0 °F 59% 29.92 in 10.0 mi NNW 5.8 mph - N/A   Clear
4:53 PM 64.9 °F 55.0 °F 70% 29.92 in 10.0 mi NW 9.2 mph - N/A   Clear
5:53 PM 66.9 °F 55.0 °F 66% 29.91 in 10.0 mi Variable 6.9 mph - N/A   Clear
6:53 PM 64.9 °F 54.0 °F 68% 29.92 in 10.0 mi NW 6.9 mph - N/A   Clear
7:53 PM 64.0 °F 54.0 °F 70% 29.92 in 10.0 mi WNW 5.8 mph - N/A   Clear
8:53 PM 60.1 °F 53.1 °F 78% 29.93 in 10.0 mi WSW 5.8 mph - N/A   Clear
9:53 PM 57.0 °F 53.1 °F 87% 29.94 in 10.0 mi West 4.6 mph - N/A   Clear
10:53 PM 55.0 °F 52.0 °F 89% 29.96 in 10.0 mi WNW 6.9 mph - N/A   Clear
11:53 PM 54.0 °F 52.0 °F 93% 29.96 in 10.0 mi WNW 9.2 mph - N/A   Clear